Regional Weather Roundup
Issued by NWS

Home | Current Version | Previous Version | Graphics & Text | Print | Product List | Glossary On
Versions: 1 2 3 4 5 6 7 8 9 10 11 12 13 14 15 16 17 18 19 20 21 22 23 24 25 26 27
000
ASUS45 KSLC 150210
RWRUT

UTAH REGIONAL WEATHER ROUNDUP
NATIONAL WEATHER SERVICE SALT LAKE CITY UT
700 PM MST THU DEC 14 2017

UTZ001>011-023>025-150300-

NORTHERN UTAH

CITY           SKY/WX    TMP DP  RH WIND       PRES   REMARKS
BRIGHAM CITY   CLEAR     27  23  84 CALM      30.43S
HILL AFB       CLEAR     29  24  81 SE3       30.41S
LOGAN          CLEAR     27  20  75 CALM      30.42S
OGDEN          CLEAR     28  24  85 CALM      30.41S
SALT LAKE CITY PTCLDY    33  26  75 CALM      30.42R
TOOELE VALLEY  CLEAR     21  19  93 S5        30.43S WCI  15
WENDOVER       CLEAR     25  18  74 NE3       30.43R
HEBER CITY       N/A     23  18  80 CALM      30.36R
WEST JORDAN    CLEAR     27  24  89 SW6       30.43R WCI  21

$$

UTZ011>015-024>027-150300-

CENTRAL/NORTHEAST UTAH

CITY           SKY/WX    TMP DP  RH WIND       PRES   REMARKS
PROVO AIRPORT  PTCLDY    26  23  88 CALM      30.44R
MOAB/CANYONLAN CLEAR     32  13  45 W3        30.31R
DELTA          CLEAR     28  19  69 MISG      30.43R
PRICE          CLEAR     33  15  47 NE10      30.31R WCI  25
ROOSEVELT      CLOUDY    23  14  68 CALM      30.37R
VERNAL         CLOUDY    26  16  65 W7        30.35R WCI  18

$$

UTZ013>016-019>022-027-150300-

SOUTHERN UTAH

CITY           SKY/WX    TMP DP  RH WIND       PRES   REMARKS
BRYCE CANYON   CLEAR     26  13  57 W6        30.37R WCI  19
CEDAR CITY     PTCLDY    28  19  69 N6        30.37R WCI  22
MILFORD        CLEAR     27  18  69 NW8       30.40R WCI  19
ST GEORGE      CLEAR     51  22  31 NE13      30.29R
HANKSVILLE     CLEAR     32  10  40 E5        30.34R WCI  27
BLANDING         N/A     42  -8  12 NE24G35   30.32S

$$

REGIONAL REPORTS     COLORADO/ARIZONA

CITY           SKY/WX    TMP DP  RH WIND       PRES   REMARKS
CRAIG, CO      CLOUDY    13   9  84 CALM      30.35R
GRAND JUNCTION CLEAR     37  16  42 NE13      30.32R WCI  29
RIFLE, CO      CLOUDY    29  11  47 CALM      30.35R
MONTROSE, CO   CLEAR     27  17  66 S9        30.34R WCI  18
CORTEZ, CO     CLEAR     37  10  32 NW12      30.25R WCI  29
COLORADO CITY    N/A     36  16  44 E3        30.32R
PAGE, AZ       CLEAR     43  13  29 SE5       30.28R
GRAND CANYON   CLEAR     25   5  42 CALM      30.29R
KINGMAN, AZ    CLEAR     48  18  30 E9        30.21R
FLAGSTAFF, AZ  PTCLDY    35   9  33 E5        30.24R WCI  31

$$

REGIONAL REPORTS    NEVADA/IDAHO/WYOMING

CITY           SKY/WX    TMP DP  RH WIND       PRES   REMARKS
LAS VEGAS, NV  PTCLDY    60  20  21 NE8       30.22R
ELY, NY        CLEAR     30  15  53 S7        30.38R WCI  23
ELKO, NV       PTCLDY    28  22  78 E3        30.39R
POCATELLO, ID  FOG       23  21  92 NE5       30.44R VSB 1/2 WCI  17
BURLEY, ID     FOG       25  22  88 NE5       30.40F VSB 1/2 WCI  19
FORT BRIDGER,    N/A     31  19  60 W16       30.35R WCI  20
EVANSTON, WY   CLOUDY    24  19  81 SW9       30.35R WCI  14
ROCK SPRINGS,  CLOUDY    28  12  51 SW16      30.28S WCI  16

$$




USA.gov is the U.S. government's official web portal to all federal, state and local government web resources and services.